N414XX KTEX-KSEZ

Flight info

Callsign N414XX
Flight time 1h 26m
Altitude 18000
Route ETL FLG
Aircraft C414/L-SBDFGRY/S

Departure

Time 2026-04-27 23:20
Airport Telluride Regional Airport (KTEX)

Arrival

Time 2026-04-28 00:46
Airport Sedona Airport (KSEZ)
Time Latitude Longitude Altitude Speed Heading
2026-04-27 23:12 37.95402 -107.90129 9052 ft 0 kts 14°
2026-04-27 23:18 37.95403 -107.90111 9054 ft 6 kts 146°
2026-04-27 23:18 37.95334 -107.90114 9052 ft 15 kts 192°
2026-04-27 23:18 37.95238 -107.90160 9043 ft 12 kts 237°
2026-04-27 23:18 37.95238 -107.90184 9042 ft 5 kts 292°
2026-04-27 23:19 37.95295 -107.90461 9029 ft 58 kts 286°
2026-04-27 23:19 37.95448 -107.91135 9017 ft 98 kts 284°
2026-04-27 23:19 37.95627 -107.92072 9132 ft 116 kts 282°
2026-04-27 23:19 37.95871 -107.93051 9536 ft 117 kts 283°
2026-04-27 23:20 37.96133 -107.94045 9988 ft 121 kts 280°
2026-04-27 23:20 37.96411 -107.95133 10296 ft 139 kts 279°
2026-04-27 23:20 37.96714 -107.96301 10726 ft 135 kts 282°
2026-04-27 23:20 37.97003 -107.97424 11121 ft 135 kts 279°
2026-04-27 23:21 37.97288 -107.98574 11302 ft 138 kts 281°
2026-04-27 23:21 37.97578 -107.99738 11391 ft 138 kts 279°
2026-04-27 23:21 37.97861 -108.00877 11626 ft 136 kts 278°
2026-04-27 23:21 37.98152 -108.02034 11787 ft 140 kts 278°
2026-04-27 23:22 37.98440 -108.03195 12027 ft 140 kts 278°
2026-04-27 23:22 37.98731 -108.04383 12216 ft 143 kts 278°
2026-04-27 23:22 37.99026 -108.05583 12471 ft 143 kts 279°
2026-04-27 23:22 37.99320 -108.06770 12733 ft 141 kts 277°
2026-04-27 23:23 37.99612 -108.07950 12995 ft 140 kts 279°
2026-04-27 23:23 37.99905 -108.09130 13234 ft 140 kts 278°
2026-04-27 23:23 38.00198 -108.10313 13504 ft 140 kts 277°
2026-04-27 23:23 38.00487 -108.11493 13809 ft 140 kts 277°
2026-04-27 23:24 38.00778 -108.12669 14043 ft 139 kts 278°
2026-04-27 23:24 38.01070 -108.13849 14278 ft 141 kts 277°
2026-04-27 23:24 38.01360 -108.15044 14501 ft 142 kts 278°
2026-04-27 23:24 38.01656 -108.16234 14714 ft 142 kts 278°
2026-04-27 23:25 38.01951 -108.17427 14935 ft 142 kts 278°
2026-04-27 23:25 38.02245 -108.18620 15158 ft 142 kts 278°
2026-04-27 23:25 38.02539 -108.19815 15373 ft 142 kts 278°
2026-04-27 23:25 38.02833 -108.21011 15598 ft 142 kts 278°
2026-04-27 23:26 38.03128 -108.22215 15816 ft 143 kts 278°
2026-04-27 23:26 38.03423 -108.23420 16019 ft 144 kts 278°
2026-04-27 23:26 38.03716 -108.24633 16214 ft 143 kts 276°
2026-04-27 23:26 38.03693 -108.25833 16398 ft 135 kts 248°
2026-04-27 23:27 38.03227 -108.26842 16595 ft 133 kts 226°
2026-04-27 23:27 38.02560 -108.27664 16807 ft 134 kts 226°
2026-04-27 23:27 38.01899 -108.28502 17043 ft 134 kts 226°
2026-04-27 23:27 38.01234 -108.29335 17260 ft 135 kts 226°
2026-04-27 23:28 38.00559 -108.30173 17524 ft 136 kts 226°
2026-04-27 23:28 38.00112 -108.30729 17667 ft 136 kts 226°
2026-04-27 23:28 37.99435 -108.31571 17898 ft 138 kts 226°
2026-04-27 23:28 37.98729 -108.32453 17929 ft 149 kts 226°
2026-04-27 23:29 37.97955 -108.33419 17925 ft 163 kts 226°
2026-04-27 23:29 37.97122 -108.34458 17919 ft 173 kts 226°
2026-04-27 23:29 37.95952 -108.35912 17912 ft 182 kts 226°
2026-04-27 23:29 37.95335 -108.36680 17910 ft 186 kts 226°
2026-04-27 23:30 37.94094 -108.38222 17906 ft 191 kts 226°
2026-04-27 23:30 37.93451 -108.39021 17907 ft 192 kts 226°
2026-04-27 23:30 37.92489 -108.40214 17909 ft 195 kts 226°
2026-04-27 23:30 37.91511 -108.41429 17899 ft 198 kts 226°
2026-04-27 23:31 37.90519 -108.42662 17906 ft 201 kts 225°
2026-04-27 23:31 37.89516 -108.43906 17906 ft 203 kts 226°
2026-04-27 23:31 37.88502 -108.45162 17901 ft 204 kts 225°
2026-04-27 23:31 37.87485 -108.46424 17897 ft 205 kts 225°
2026-04-27 23:32 37.86477 -108.47673 17898 ft 206 kts 225°
2026-04-27 23:32 37.85453 -108.48940 17899 ft 206 kts 225°
2026-04-27 23:32 37.84430 -108.50208 17895 ft 206 kts 225°
2026-04-27 23:32 37.83407 -108.51473 17891 ft 206 kts 225°
2026-04-27 23:33 37.82386 -108.52737 17893 ft 205 kts 225°
2026-04-27 23:33 37.81363 -108.54001 17894 ft 205 kts 226°
2026-04-27 23:33 37.80342 -108.55263 17889 ft 205 kts 226°
2026-04-27 23:33 37.79325 -108.56520 17887 ft 204 kts 225°
2026-04-27 23:34 37.78310 -108.57774 17879 ft 204 kts 225°
2026-04-27 23:34 37.77299 -108.59020 17879 ft 203 kts 225°
2026-04-27 23:34 37.76286 -108.60271 17882 ft 204 kts 225°
2026-04-27 23:34 37.75267 -108.61529 17879 ft 205 kts 225°
2026-04-27 23:35 37.74246 -108.62788 17879 ft 205 kts 225°
2026-04-27 23:35 37.73225 -108.64047 17879 ft 205 kts 225°
2026-04-27 23:35 37.72204 -108.65305 17881 ft 205 kts 225°
2026-04-27 23:35 37.71181 -108.66564 17880 ft 206 kts 225°
2026-04-27 23:36 37.70155 -108.67827 17876 ft 206 kts 225°
2026-04-27 23:36 37.69130 -108.69088 17873 ft 206 kts 225°
2026-04-27 23:36 37.68104 -108.70350 17870 ft 206 kts 225°
2026-04-27 23:36 37.67077 -108.71614 17872 ft 206 kts 225°
2026-04-27 23:37 37.66048 -108.72879 17876 ft 207 kts 225°
2026-04-27 23:37 37.65019 -108.74143 17867 ft 206 kts 225°
2026-04-27 23:37 37.63991 -108.75403 17869 ft 206 kts 225°
2026-04-27 23:37 37.62967 -108.76661 17871 ft 206 kts 225°
2026-04-27 23:38 37.61942 -108.77919 17872 ft 206 kts 225°
2026-04-27 23:38 37.60917 -108.79177 17874 ft 206 kts 225°
2026-04-27 23:38 37.59890 -108.80435 17874 ft 206 kts 225°
2026-04-27 23:38 37.58866 -108.81691 17871 ft 205 kts 225°
2026-04-27 23:39 37.57840 -108.82947 17871 ft 205 kts 225°
2026-04-27 23:39 37.56817 -108.84200 17876 ft 205 kts 225°
2026-04-27 23:39 37.55807 -108.85437 17873 ft 205 kts 225°
2026-04-27 23:39 37.54784 -108.86689 17870 ft 205 kts 225°
2026-04-27 23:40 37.53762 -108.87937 17876 ft 205 kts 225°
2026-04-27 23:40 37.52740 -108.89187 17867 ft 205 kts 225°
2026-04-27 23:40 37.51718 -108.90436 17873 ft 205 kts 225°
2026-04-27 23:40 37.50696 -108.91685 17874 ft 205 kts 225°
2026-04-27 23:41 37.49672 -108.92936 17865 ft 205 kts 225°
2026-04-27 23:41 37.48650 -108.94183 17869 ft 204 kts 225°
2026-04-27 23:41 37.47628 -108.95430 17859 ft 205 kts 225°
2026-04-27 23:41 37.46606 -108.96677 17858 ft 205 kts 225°
2026-04-27 23:42 37.45583 -108.97924 17855 ft 205 kts 225°
2026-04-27 23:42 37.44560 -108.99171 17854 ft 205 kts 225°
2026-04-27 23:42 37.43538 -109.00416 17848 ft 205 kts 225°
2026-04-27 23:42 37.42513 -109.01665 17840 ft 205 kts 225°
2026-04-27 23:43 37.41487 -109.02913 17835 ft 205 kts 225°
2026-04-27 23:43 37.40460 -109.04162 17832 ft 206 kts 225°
2026-04-27 23:43 37.39433 -109.05411 17822 ft 206 kts 225°
2026-04-27 23:43 37.38404 -109.06662 17823 ft 206 kts 225°
2026-04-27 23:44 37.37376 -109.07912 17819 ft 206 kts 225°
2026-04-27 23:44 37.36347 -109.09161 17820 ft 205 kts 225°
2026-04-27 23:44 37.35319 -109.10410 17822 ft 206 kts 225°
2026-04-27 23:44 37.34290 -109.11659 17811 ft 206 kts 225°
2026-04-27 23:45 37.33261 -109.12907 17810 ft 205 kts 225°
2026-04-27 23:45 37.32236 -109.14150 17810 ft 205 kts 225°
2026-04-27 23:45 37.31207 -109.15397 17809 ft 205 kts 225°
2026-04-27 23:45 37.30179 -109.16644 17808 ft 205 kts 225°
2026-04-27 23:46 37.29151 -109.17888 17809 ft 205 kts 225°
2026-04-27 23:46 37.28122 -109.19134 17805 ft 205 kts 225°
2026-04-27 23:46 37.27108 -109.20362 17807 ft 206 kts 225°
2026-04-27 23:46 37.26064 -109.21625 17804 ft 206 kts 225°
2026-04-27 23:47 37.25033 -109.22873 17802 ft 206 kts 225°
2026-04-27 23:47 37.24002 -109.24119 17807 ft 206 kts 225°
2026-04-27 23:47 37.22984 -109.25349 17804 ft 206 kts 225°
2026-04-27 23:47 37.21939 -109.26611 17802 ft 206 kts 225°
2026-04-27 23:48 37.20923 -109.27838 17804 ft 206 kts 225°
2026-04-27 23:48 37.19894 -109.29080 17800 ft 205 kts 225°
2026-04-27 23:48 37.18865 -109.30321 17802 ft 205 kts 225°
2026-04-27 23:48 37.17834 -109.31566 17800 ft 206 kts 225°
2026-04-27 23:49 37.16804 -109.32807 17803 ft 206 kts 225°
2026-04-27 23:49 37.15772 -109.34050 17800 ft 206 kts 225°
2026-04-27 23:49 37.14739 -109.35294 17805 ft 206 kts 225°
2026-04-27 23:49 37.13704 -109.36541 17805 ft 207 kts 225°
2026-04-27 23:50 37.12666 -109.37790 17803 ft 207 kts 225°
2026-04-27 23:50 37.11627 -109.39040 17803 ft 207 kts 225°
2026-04-27 23:50 37.10587 -109.40291 17807 ft 207 kts 225°
2026-04-27 23:50 37.09547 -109.41541 17805 ft 207 kts 225°
2026-04-27 23:51 37.08507 -109.42792 17805 ft 207 kts 225°
2026-04-27 23:51 37.07465 -109.44043 17801 ft 208 kts 225°
2026-04-27 23:51 37.06423 -109.45295 17799 ft 208 kts 225°
2026-04-27 23:51 37.05380 -109.46546 17804 ft 208 kts 225°
2026-04-27 23:52 37.04337 -109.47798 17807 ft 208 kts 225°
2026-04-27 23:52 37.03292 -109.49051 17802 ft 208 kts 225°
2026-04-27 23:52 37.02245 -109.50305 17798 ft 208 kts 225°
2026-04-27 23:52 37.01199 -109.51559 17805 ft 208 kts 225°
2026-04-27 23:53 37.00154 -109.52811 17799 ft 208 kts 225°
2026-04-27 23:53 36.99110 -109.54061 17804 ft 208 kts 225°
2026-04-27 23:53 36.98067 -109.55309 17801 ft 207 kts 225°
2026-04-27 23:53 36.97026 -109.56554 17798 ft 207 kts 225°
2026-04-27 23:54 36.95986 -109.57799 17802 ft 207 kts 225°
2026-04-27 23:54 36.94946 -109.59043 17802 ft 207 kts 225°
2026-04-27 23:54 36.93903 -109.60288 17801 ft 207 kts 225°
2026-04-27 23:54 36.92860 -109.61535 17801 ft 207 kts 225°
2026-04-27 23:55 36.91819 -109.62778 17801 ft 207 kts 225°
2026-04-27 23:55 36.90776 -109.64022 17798 ft 207 kts 225°
2026-04-27 23:55 36.89750 -109.65247 17796 ft 207 kts 226°
2026-04-27 23:55 36.88710 -109.66487 17792 ft 207 kts 226°
2026-04-27 23:56 36.87670 -109.67727 17791 ft 207 kts 226°
2026-04-27 23:56 36.86630 -109.68967 17794 ft 207 kts 226°
2026-04-27 23:56 36.85589 -109.70206 17791 ft 206 kts 225°
2026-04-27 23:56 36.84550 -109.71443 17793 ft 206 kts 226°
2026-04-27 23:57 36.83511 -109.72681 17795 ft 207 kts 226°
2026-04-27 23:57 36.82469 -109.73921 17789 ft 207 kts 226°
2026-04-27 23:57 36.81427 -109.75159 17789 ft 207 kts 226°
2026-04-27 23:57 36.80385 -109.76397 17792 ft 207 kts 226°
2026-04-27 23:58 36.79346 -109.77632 17788 ft 206 kts 226°
2026-04-27 23:58 36.78308 -109.78865 17791 ft 206 kts 226°
2026-04-27 23:58 36.77270 -109.80098 17793 ft 206 kts 226°
2026-04-27 23:58 36.76233 -109.81330 17793 ft 206 kts 226°
2026-04-27 23:59 36.75197 -109.82558 17797 ft 205 kts 226°
2026-04-27 23:59 36.74163 -109.83784 17789 ft 205 kts 226°
2026-04-27 23:59 36.73129 -109.85010 17792 ft 205 kts 226°
2026-04-27 23:59 36.72097 -109.86234 17795 ft 205 kts 226°
2026-04-28 00:00 36.71066 -109.87455 17791 ft 204 kts 226°
2026-04-28 00:00 36.70038 -109.88672 17791 ft 204 kts 226°
2026-04-28 00:00 36.69011 -109.89888 17792 ft 203 kts 226°
2026-04-28 00:00 36.67986 -109.91101 17790 ft 203 kts 226°
2026-04-28 00:01 36.66961 -109.92312 17792 ft 203 kts 226°
2026-04-28 00:01 36.65938 -109.93523 17800 ft 203 kts 226°
2026-04-28 00:01 36.64916 -109.94731 17798 ft 202 kts 226°
2026-04-28 00:01 36.63895 -109.95937 17796 ft 202 kts 226°
2026-04-28 00:02 36.62876 -109.97141 17801 ft 202 kts 226°
2026-04-28 00:02 36.61856 -109.98345 17796 ft 202 kts 226°
2026-04-28 00:02 36.60837 -109.99547 17801 ft 202 kts 226°
2026-04-28 00:02 36.59817 -110.00751 17804 ft 202 kts 226°
2026-04-28 00:03 36.58796 -110.01954 17804 ft 202 kts 226°
2026-04-28 00:03 36.57775 -110.03157 17801 ft 202 kts 226°
2026-04-28 00:03 36.56753 -110.04362 17800 ft 202 kts 226°
2026-04-28 00:03 36.55746 -110.05549 17802 ft 202 kts 226°
2026-04-28 00:04 36.54722 -110.06753 17803 ft 203 kts 226°
2026-04-28 00:04 36.52681 -110.09156 17806 ft 202 kts 226°
2026-04-28 00:04 36.51662 -110.10354 17805 ft 202 kts 226°
2026-04-28 00:05 36.50648 -110.11548 17809 ft 202 kts 226°
2026-04-28 00:05 36.49621 -110.12754 17811 ft 203 kts 226°
2026-04-28 00:05 36.48601 -110.13950 17815 ft 201 kts 226°
2026-04-28 00:05 36.47928 -110.14741 17810 ft 201 kts 226°
2026-04-28 00:06 36.46565 -110.16341 17809 ft 202 kts 226°
2026-04-28 00:06 36.45544 -110.17540 17810 ft 202 kts 226°
2026-04-28 00:06 36.44519 -110.18743 17814 ft 202 kts 226°
2026-04-28 00:06 36.43494 -110.19943 17809 ft 203 kts 226°
2026-04-28 00:07 36.42470 -110.21143 17807 ft 203 kts 226°
2026-04-28 00:07 36.41444 -110.22347 17807 ft 203 kts 226°
2026-04-28 00:07 36.40417 -110.23549 17811 ft 203 kts 226°
2026-04-28 00:07 36.39388 -110.24754 17807 ft 203 kts 226°
2026-04-28 00:08 36.38358 -110.25959 17813 ft 204 kts 226°
2026-04-28 00:08 36.37327 -110.27165 17806 ft 204 kts 226°
2026-04-28 00:08 36.36296 -110.28370 17809 ft 204 kts 225°
2026-04-28 00:08 36.35264 -110.29577 17809 ft 204 kts 225°
2026-04-28 00:09 36.34231 -110.30783 17808 ft 204 kts 225°
2026-04-28 00:09 36.33197 -110.31992 17807 ft 204 kts 225°
2026-04-28 00:09 36.32162 -110.33200 17809 ft 204 kts 225°
2026-04-28 00:09 36.31127 -110.34408 17810 ft 204 kts 225°
2026-04-28 00:10 36.30092 -110.35615 17808 ft 204 kts 225°
2026-04-28 00:10 36.29056 -110.36823 17809 ft 204 kts 225°
2026-04-28 00:10 36.28020 -110.38031 17804 ft 205 kts 225°
2026-04-28 00:10 36.26984 -110.39239 17807 ft 204 kts 225°
2026-04-28 00:11 36.25948 -110.40445 17805 ft 204 kts 225°
2026-04-28 00:11 36.25263 -110.41243 17809 ft 204 kts 225°
2026-04-28 00:11 36.23880 -110.42854 17809 ft 204 kts 225°
2026-04-28 00:11 36.22843 -110.44060 17809 ft 204 kts 225°
2026-04-28 00:12 36.21810 -110.45261 17809 ft 204 kts 225°
2026-04-28 00:12 36.20790 -110.46448 17807 ft 204 kts 225°
2026-04-28 00:12 36.19755 -110.47650 17807 ft 204 kts 225°
2026-04-28 00:12 36.18719 -110.48853 17805 ft 204 kts 225°
2026-04-28 00:13 36.17683 -110.50057 17805 ft 204 kts 225°
2026-04-28 00:13 36.16645 -110.51261 17810 ft 204 kts 225°
2026-04-28 00:13 36.15608 -110.52464 17807 ft 204 kts 226°
2026-04-28 00:13 36.14570 -110.53670 17808 ft 205 kts 225°
2026-04-28 00:14 36.13533 -110.54871 17809 ft 204 kts 225°
2026-04-28 00:14 36.12496 -110.56074 17804 ft 204 kts 226°
2026-04-28 00:14 36.11461 -110.57274 17805 ft 204 kts 226°
2026-04-28 00:14 36.10423 -110.58476 17811 ft 204 kts 226°
2026-04-28 00:15 36.09386 -110.59676 17811 ft 204 kts 226°
2026-04-28 00:15 36.08348 -110.60877 17809 ft 204 kts 226°
2026-04-28 00:15 36.07311 -110.62077 17806 ft 204 kts 226°
2026-04-28 00:15 36.06276 -110.63275 17808 ft 204 kts 226°
2026-04-28 00:16 36.05239 -110.64472 17807 ft 204 kts 226°
2026-04-28 00:16 36.04202 -110.65672 17810 ft 204 kts 226°
2026-04-28 00:16 36.03164 -110.66871 17812 ft 204 kts 226°
2026-04-28 00:16 36.02126 -110.68068 17811 ft 204 kts 226°
2026-04-28 00:17 36.01087 -110.69269 17816 ft 204 kts 226°
2026-04-28 00:17 36.00050 -110.70465 17812 ft 204 kts 226°
2026-04-28 00:17 35.99013 -110.71661 17813 ft 204 kts 226°
2026-04-28 00:17 35.97974 -110.72859 17813 ft 204 kts 226°
2026-04-28 00:18 35.97287 -110.73651 17814 ft 204 kts 226°
2026-04-28 00:18 35.96250 -110.74846 17816 ft 204 kts 226°
2026-04-28 00:18 35.95212 -110.76041 17816 ft 204 kts 226°
2026-04-28 00:18 35.94162 -110.77251 17816 ft 204 kts 226°
2026-04-28 00:19 35.93125 -110.78444 17816 ft 204 kts 226°
2026-04-28 00:19 35.92088 -110.79637 17815 ft 204 kts 226°
2026-04-28 00:19 35.91066 -110.80812 17812 ft 204 kts 226°
2026-04-28 00:19 35.90031 -110.82003 17819 ft 204 kts 226°
2026-04-28 00:20 35.88995 -110.83193 17815 ft 203 kts 226°
2026-04-28 00:20 35.87962 -110.84379 17818 ft 203 kts 226°
2026-04-28 00:20 35.86928 -110.85567 17819 ft 203 kts 226°
2026-04-28 00:20 35.85894 -110.86754 17821 ft 203 kts 226°
2026-04-28 00:21 35.84863 -110.87937 17815 ft 202 kts 226°
2026-04-28 00:21 35.83832 -110.89120 17817 ft 202 kts 226°
2026-04-28 00:21 35.82801 -110.90303 17822 ft 202 kts 226°
2026-04-28 00:21 35.81771 -110.91483 17822 ft 202 kts 226°
2026-04-28 00:22 35.80739 -110.92665 17819 ft 203 kts 226°
2026-04-28 00:22 35.79709 -110.93845 17821 ft 202 kts 226°
2026-04-28 00:22 35.78678 -110.95025 17826 ft 202 kts 226°
2026-04-28 00:22 35.77647 -110.96205 17824 ft 202 kts 226°
2026-04-28 00:23 35.76617 -110.97384 17828 ft 202 kts 226°
2026-04-28 00:23 35.75587 -110.98562 17825 ft 202 kts 226°
2026-04-28 00:23 35.74558 -110.99738 17827 ft 202 kts 226°
2026-04-28 00:23 35.73528 -111.00917 17828 ft 202 kts 226°
2026-04-28 00:24 35.72500 -111.02090 17827 ft 202 kts 226°
2026-04-28 00:24 35.71470 -111.03267 17830 ft 202 kts 226°
2026-04-28 00:24 35.70438 -111.04445 17830 ft 202 kts 226°
2026-04-28 00:24 35.69405 -111.05623 17829 ft 202 kts 226°
2026-04-28 00:25 35.68373 -111.06801 17829 ft 202 kts 226°
2026-04-28 00:25 35.67340 -111.07978 17830 ft 203 kts 226°
2026-04-28 00:25 35.66305 -111.09159 17832 ft 203 kts 226°
2026-04-28 00:25 35.65268 -111.10340 17830 ft 203 kts 226°
2026-04-28 00:26 35.64232 -111.11520 17829 ft 203 kts 226°
2026-04-28 00:26 35.63197 -111.12698 17831 ft 203 kts 226°
2026-04-28 00:26 35.62164 -111.13873 17831 ft 202 kts 226°
2026-04-28 00:26 35.61131 -111.15048 17832 ft 202 kts 226°
2026-04-28 00:27 35.60100 -111.16223 17839 ft 202 kts 226°
2026-04-28 00:27 35.59069 -111.17395 17837 ft 202 kts 226°
2026-04-28 00:27 35.58033 -111.18573 17839 ft 203 kts 226°
2026-04-28 00:27 35.56995 -111.19751 17838 ft 203 kts 226°
2026-04-28 00:28 35.55957 -111.20931 17839 ft 203 kts 226°
2026-04-28 00:28 35.54917 -111.22111 17840 ft 204 kts 226°
2026-04-28 00:28 35.53876 -111.23292 17841 ft 204 kts 226°
2026-04-28 00:28 35.52833 -111.24476 17844 ft 204 kts 226°
2026-04-28 00:29 35.51791 -111.25657 17846 ft 204 kts 226°
2026-04-28 00:29 35.50761 -111.26825 17852 ft 204 kts 226°
2026-04-28 00:29 35.49720 -111.28005 17856 ft 204 kts 226°
2026-04-28 00:29 35.48679 -111.29186 17853 ft 204 kts 226°
2026-04-28 00:30 35.47635 -111.30365 17857 ft 204 kts 226°
2026-04-28 00:30 35.46595 -111.31543 17855 ft 204 kts 226°
2026-04-28 00:30 35.45555 -111.32720 17857 ft 203 kts 226°
2026-04-28 00:30 35.44514 -111.33897 17863 ft 203 kts 226°
2026-04-28 00:31 35.43475 -111.35072 17869 ft 203 kts 226°
2026-04-28 00:31 35.42435 -111.36247 17863 ft 203 kts 227°
2026-04-28 00:31 35.41394 -111.37424 17869 ft 203 kts 226°
2026-04-28 00:31 35.40354 -111.38598 17884 ft 203 kts 226°
2026-04-28 00:32 35.39317 -111.39769 17891 ft 203 kts 227°
2026-04-28 00:32 35.38281 -111.40939 17898 ft 203 kts 227°
2026-04-28 00:32 35.37240 -111.42113 17906 ft 202 kts 227°
2026-04-28 00:32 35.36207 -111.43277 17931 ft 202 kts 227°
2026-04-28 00:33 35.35173 -111.44443 17927 ft 202 kts 227°
2026-04-28 00:33 35.34146 -111.45599 17958 ft 201 kts 227°
2026-04-28 00:33 35.33119 -111.46759 17965 ft 202 kts 227°
2026-04-28 00:33 35.32083 -111.47926 17975 ft 203 kts 227°
2026-04-28 00:34 35.31043 -111.49094 17988 ft 203 kts 227°
2026-04-28 00:34 35.30007 -111.50261 17998 ft 202 kts 227°
2026-04-28 00:34 35.28970 -111.51428 18005 ft 202 kts 227°
2026-04-28 00:34 35.27937 -111.52589 18014 ft 201 kts 227°
2026-04-28 00:35 35.26905 -111.53750 18019 ft 202 kts 227°
2026-04-28 00:35 35.25871 -111.54911 18027 ft 201 kts 227°
2026-04-28 00:35 35.24848 -111.56060 18033 ft 201 kts 227°
2026-04-28 00:35 35.23816 -111.57218 18038 ft 200 kts 227°
2026-04-28 00:36 35.22793 -111.58367 18058 ft 200 kts 227°
2026-04-28 00:36 35.21770 -111.59516 18056 ft 200 kts 227°
2026-04-28 00:36 35.20746 -111.60664 18061 ft 199 kts 227°
2026-04-28 00:36 35.19723 -111.61811 18061 ft 200 kts 227°
2026-04-28 00:37 35.18700 -111.62958 18064 ft 200 kts 227°
2026-04-28 00:37 35.17678 -111.64103 18060 ft 199 kts 227°
2026-04-28 00:37 35.16660 -111.65242 18065 ft 199 kts 227°
2026-04-28 00:37 35.15536 -111.66259 18056 ft 207 kts 209°
2026-04-28 00:38 35.14131 -111.66710 18064 ft 204 kts 211°
2026-04-28 00:38 35.12966 -111.67636 18061 ft 200 kts 220°
2026-04-28 00:38 35.11793 -111.68520 18057 ft 202 kts 216°
2026-04-28 00:38 35.10533 -111.69303 18050 ft 204 kts 213°
2026-04-28 00:39 35.09256 -111.70059 18052 ft 204 kts 213°
2026-04-28 00:39 35.07987 -111.70825 18044 ft 204 kts 214°
2026-04-28 00:39 35.06671 -111.71632 17631 ft 219 kts 213°
2026-04-28 00:39 35.05303 -111.72463 17213 ft 220 kts 213°
2026-04-28 00:40 35.03931 -111.73290 16801 ft 220 kts 212°
2026-04-28 00:40 35.02560 -111.74121 16384 ft 220 kts 212°
2026-04-28 00:40 35.01185 -111.74956 15973 ft 220 kts 212°
2026-04-28 00:40 34.99813 -111.75787 15555 ft 221 kts 212°
2026-04-28 00:41 34.98447 -111.76609 15160 ft 219 kts 212°
2026-04-28 00:41 34.97087 -111.77437 14783 ft 218 kts 212°
2026-04-28 00:41 34.95721 -111.78270 14350 ft 222 kts 211°
2026-04-28 00:41 34.94318 -111.79120 13811 ft 228 kts 211°
2026-04-28 00:42 34.92907 -111.79970 13205 ft 220 kts 210°
2026-04-28 00:42 34.91570 -111.80774 12602 ft 209 kts 210°
2026-04-28 00:42 34.90295 -111.81551 12010 ft 201 kts 211°
2026-04-28 00:42 34.89089 -111.82373 11430 ft 197 kts 213°
2026-04-28 00:43 34.87921 -111.83206 10857 ft 193 kts 212°
2026-04-28 00:43 34.86779 -111.84039 10299 ft 190 kts 212°
2026-04-28 00:43 34.85686 -111.84930 9687 ft 189 kts 221°
2026-04-28 00:43 34.84794 -111.86102 9055 ft 190 kts 229°
2026-04-28 00:44 34.83893 -111.87279 8417 ft 188 kts 215°
2026-04-28 00:44 34.82652 -111.87705 7794 ft 192 kts 179°
2026-04-28 00:44 34.81425 -111.87063 7182 ft 200 kts 142°
2026-04-28 00:44 34.80753 -111.85572 6696 ft 208 kts 102°
2026-04-28 00:45 34.81136 -111.83981 6623 ft 193 kts 64°
2026-04-28 00:45 34.81892 -111.82649 6184 ft 196 kts 51°
2026-04-28 00:45 34.82771 -111.81462 5713 ft 176 kts 49°
2026-04-28 00:45 34.83565 -111.80462 5134 ft 155 kts 47°
2026-04-28 00:46 34.84267 -111.79567 4791 ft 137 kts 47°
2026-04-28 00:46 34.84848 -111.78852 4783 ft 96 kts 50°
2026-04-28 00:46 34.85113 -111.78530 4813 ft 24 kts 32°
2026-04-28 00:46 34.85142 -111.78612 4811 ft 16 kts 221°
2026-04-28 00:47 34.85139 -111.78651 4810 ft 0 kts 319°